Simultaneous Nadir Overpasses (SNOs) Predictions

Prediction of SNOs between METOP-B and TERRA Satellite Orbit:

Table of predicted SNOs for the next 14.0 days since TLE Epoch: 8/18/2015
Index Date (METOP-B) Time (METOP-B) Lat,Lon (METOP-B) SZA (METOP-B ) Date (TERRA) Time (TERRA) Lat,Lon (TERRA) SZA (TERRA ) Distance(km) Time Diff (sec)
1 08/19/2015 00:00:05 81.31,-132.60 71.14 08/19/2015 00:00:07 81.31,-132.61 71.13 0.82 2
2 08/19/2015 00:50:45 -81.32, 35.18 108.80 08/19/2015 00:49:33 -81.32, 35.33 108.82 2.61 72
3 08/21/2015 18:43:48 -81.31, 126.22 107.97 08/21/2015 18:44:54 -81.31, 126.18 107.95 0.83 66
4 08/21/2015 19:34:28 81.31, -66.31 72.06 08/21/2015 19:34:20 81.31, -66.12 72.08 3.17 8
5 08/24/2015 14:18:11 -81.31,-167.49 107.02 08/24/2015 14:19:07 -81.30,-167.38 106.98 1.80 56
6 08/24/2015 15:08:50 81.32, 0.35 73.06 08/24/2015 15:08:33 81.31, 0.30 73.04 1.32 17
7 08/27/2015 09:52:31 -81.32,-100.45 105.95 08/27/2015 09:53:18 -81.32,-100.65 105.95 3.35 47
8 08/27/2015 10:43:11 81.32, 66.98 74.08 08/27/2015 10:42:44 81.32, 67.01 74.07 0.68 27
9 08/30/2015 05:26:54 -81.31, -34.23 104.96 08/30/2015 05:27:31 -81.31, -34.37 104.96 2.44 37




NCC Satellite Simultaneous Nadir Overpasses (SNOs) Prediction Service
